User: anonymous   Login
Location: Oshawa
(43.9000°N, 78.8670°W)
Time: 18:17:25
(UTC-05:00)
Language:

Cosmos 2333 Rocket - Orbit

View from above orbital plane
View from above orbital plane
View from above satellite
View from above satellite

Ground track
Ground track

The orbit data is extracted from the following two-line orbital elements,

1 24298U 96051B   14329.82694661 -.00000204  00000-0 -84127-4 0  6077
2 24298 070.8586 231.5521 0014171 138.6348 287.2853 14.12454382939894
Epoch (UTC): 25 November 2014 19:50:48
Eccentricity: 0.0014171
inclination: 70.8586°
perigee height: 841 km
apogee height: 861 km
right ascension of ascending node: 231.5521°
argument of perigee: 138.6348°
revolutions per day: 14.12454382
mean anomaly at epoch: 287.2853°
orbit number at epoch: 93989

The dashed part of the orbit path shows where the satellite is in the earth's shadow,  

DLR